Snowfall_Accumulation
0.0 0.0 0.0 0.0 -0.0 -0.0 -0.0 -0.0 -0.0 -0.0 -0.0 -0.1 -0.1 -0.1 -0.1 -0.1 -0.1 -0.1 -0.1 -0.0 -0.1 -0.1 -0.1 -0.1 -0.0 -0.0 -0.0 -0.0 -0.0 -0.0 -0.0 -0.0 -0.1 -0.3 -0.3 -0.5 -0.2 -0.0 -0.0 -0.0 -0.0 -0.0 -0.0 -0.0 -0.0 -0.0 -0.1 -0.2 -0.2 -0.2 -0.2 -0.2 -0.2 -0.2 -0.2 -0.1 -0.1 -0.1 -0.1 -0.2 -0.3 -0.3 -0.3 -0.3 -0.3 -0.3 -0.2 -0.2 -0.3
0.0 0.0 0.0 0.0 0.0 0.0 -0.0 -0.0 -0.0 -0.0 -0.0 -0.0 -0.1 -0.1 -0.1 -0.1 -0.1 -0.1 -0.1 -0.1 -0.1 -0.0 -0.0 -0.0 -0.0 -0.0 -0.0 -0.0 -0.0 -0.0 -0.0 -0.1 -0.3 -0.5 -0.5 -0.2 -0.0 -0.0 -0.0 -0.0 -0.0 -0.0 -0.0 -0.0 -0.1 -0.1 -0.1 -0.2 -0.2 -0.2 -0.3 -0.3 -0.3 -0.2 -0.2 -0.1 -0.1 -0.3 -0.3 -0.3 -0.3 -0.3 -0.3 -0.3 -0.2 -0.2 -0.2 -0.2 -0.2
0.0 0.0 0.0 0.0 -0.0 -0.0 -0.0 -0.0 -0.0 -0.0 -0.0 -0.1 -0.1 -0.1 -0.1 -0.1 -0.1 -0.1 -0.1 -0.1 -0.0 -0.0 -0.0 -0.0 -0.0 -0.0 -0.0 -0.0 -0.0 -0.0 -0.1 -0.2 -0.5 -0.5 -0.5 -0.1 -0.0 -0.0 -0.0 -0.0 -0.0 -0.1 -0.1 -0.1 -0.1 -0.1 -0.2 -0.2 -0.3 -0.3 -0.3 -0.3 -0.3 -0.2 -0.2 -0.1 -0.2 -0.3 -0.3 -0.2 -0.3 -0.3 -0.3 -0.3 -0.2 -0.2 -0.1 -0.2 -0.2
0.0 0.0 0.0 0.0 -0.0 -0.0 -0.0 -0.0 -0.0 -0.0 -0.0 -0.1 -0.1 -0.1 -0.1 -0.1 -0.1 -0.1 -0.1 -0.0 -0.1 -0.0 -0.0 -0.0 -0.1 -0.0 -0.0 -0.1 -0.0 -0.0 -0.2 -0.4 -0.5 -0.2 -0.2 -0.1 -0.1 -0.1 -0.1 -0.1 -0.1 -0.1 -0.1 -0.1 -0.2 -0.2 -0.2 -0.2 -0.2 -0.2 -0.3 -0.2 -0.2 -0.2 -0.2 -0.3 -0.2 -0.3 -0.3 -0.2 -0.2 -0.2 -0.2 -0.3 -0.1 -0.1 -0.2 -0.3 -0.3
0.0 0.0 0.0 -0.0 -0.0 -0.0 -0.0 -0.0 -0.0 -0.0 -0.0 -0.0 -0.0 -0.1 -0.1 -0.1 -0.1 -0.1 -0.1 -0.1 -0.1 -0.0 -0.0 -0.0 -0.0 -0.1 -0.1 -0.0 -0.0 -0.0 -0.4 -0.5 -0.2 -0.1 -0.1 -0.1 -0.1 -0.1 -0.1 -0.1 -0.1 -0.1 -0.1 -0.1 -0.2 -0.2 -0.2 -0.2 -0.3 -0.3 -0.3 -0.2 -0.3 -0.3 -0.3 -0.2 -0.1 -0.2 -0.2 -0.2 -0.3 -0.3 -0.3 -0.3 -0.2 -0.2 -0.3 -0.3 -0.4
0.0 -0.0 -0.0 -0.0 -0.0 -0.0 -0.0 -0.0 -0.0 -0.0 -0.0 -0.0 -0.0 -0.1 -0.1 -0.1 -0.0 -0.0 -0.0 -0.0 -0.0 -0.0 -0.0 -0.1 -0.1 -0.1 -0.1 -0.1 -0.2 -0.2 -0.5 -0.2 -0.1 -0.0 -0.0 -0.1 -0.2 -0.2 -0.2 -0.2 -0.2 -0.2 -0.2 -0.1 -0.2 -0.2 -0.2 -0.3 -0.4 -0.4 -0.4 -0.2 -0.3 -0.2 -0.2 -0.1 -0.1 -0.1 -0.1 -0.3 -0.4 -0.4 -0.4 -0.4 -0.4 -0.4 -0.4 -0.5 -0.6
0.0 -0.0 -0.0 -0.0 -0.0 -0.0 -0.0 -0.0 -0.0 -0.0 -0.0 -0.1 -0.1 -0.1 -0.1 -0.1 -0.1 -0.0 -0.0 -0.0 -0.1 -0.1 -0.1 -0.1 -0.0 -0.1 -0.1 -0.2 -0.4 -0.4 -0.5 -0.1 -0.0 -0.1 -0.1 -0.2 -0.2 -0.2 -0.2 -0.2 -0.2 -0.2 -0.2 -0.2 -0.2 -0.2 -0.3 -0.3 -0.5 -0.5 -0.4 -0.4 -0.3 -0.2 -0.2 -0.2 -0.2 -0.4 -0.4 -0.4 -0.4 -0.6 -0.6 -0.5 -0.5 -0.5 -0.5 -0.6 -0.8
-0.0 -0.0 -0.0 -0.0 -0.0 -0.0 -0.0 -0.0 -0.0 -0.0 -0.0 -0.1 -0.1 -0.1 -0.1 -0.0 -0.0 -0.0 -0.0 -0.0 -0.1 -0.1 -0.1 -0.1 -0.1 -0.2 -0.2 -0.4 -0.5 -0.5 -0.3 -0.1 -0.1 -0.1 -0.1 -0.2 -0.2 -0.3 -0.3 -0.3 -0.3 -0.3 -0.3 -0.3 -0.3 -0.3 -0.3 -0.4 -0.4 -0.4 -0.4 -0.3 -0.3 -0.4 -0.4 -0.4 -0.3 -0.5 -0.5 -0.5 -0.5 -0.6 -0.6 -0.6 -0.8 -0.8 -0.7 -0.7 -1.2
-0.0 -0.0 -0.0 -0.0 -0.0 -0.0 -0.0 -0.0 -0.0 -0.0 -0.1 -0.1 -0.1 -0.0 -0.0 -0.0 -0.0 -0.0 -0.0 -0.1 -0.1 -0.1 -0.1 -0.1 -0.1 -0.3 -0.3 -0.5 -0.3 -0.3 -0.1 -0.1 -0.2 -0.2 -0.2 -0.3 -0.3 -0.3 -0.3 -0.3 -0.3 -0.3 -0.3 -0.3 -0.4 -0.4 -0.4 -0.3 -0.4 -0.4 -0.3 -0.4 -0.5 -0.5 -0.5 -0.4 -0.4 -0.5 -0.5 -0.8 -0.6 -0.5 -0.5 -0.5 -0.6 -0.6 -0.7 -1.1 -1.1
-0.0 -0.0 -0.0 -0.0 -0.0 -0.0 -0.0 -0.0 -0.0 -0.0 -0.1 -0.1 -0.1 -0.0 -0.0 -0.0 -0.0 -0.0 -0.0 -0.1 -0.1 -0.0 -0.0 -0.1 -0.2 -0.4 -0.4 -0.3 -0.1 -0.1 -0.1 -0.2 -0.3 -0.3 -0.3 -0.3 -0.4 -0.4 -0.4 -0.5 -0.4 -0.4 -0.4 -0.3 -0.4 -0.4 -0.4 -0.3 -0.4 -0.4 -0.4 -0.4 -0.5 -0.5 -0.5 -0.5 -0.6 -0.8 -0.8 -1.0 -1.0 -0.3 -0.3 -0.3 -0.6 -0.6 -0.8 -1.3 -1.2
-0.0 -0.0 -0.0 -0.0 -0.0 -0.0 -0.0 -0.0 -0.1 -0.1 -0.1 -0.1 -0.0 -0.0 -0.0 -0.0 -0.0 -0.1 -0.1 -0.1 -0.1 -0.1 -0.1 -0.1 -0.4 -0.4 -0.4 -0.2 -0.1 -0.1 -0.1 -0.1 -0.3 -0.4 -0.4 -0.3 -0.4 -0.5 -0.5 -0.5 -0.6 -0.5 -0.5 -0.6 -0.5 -0.5 -0.5 -0.3 -0.4 -0.4 -0.6 -0.8 -0.9 -0.7 -0.7 -0.6 -0.8 -0.8 -0.8 -0.8 -0.7 -0.4 -0.4 -0.4 -0.6 -0.6 -1.1 -1.1 -1.0
-0.0 -0.0 -0.0 -0.0 -0.0 -0.0 -0.0 -0.1 -0.1 -0.1 -0.1 -0.1 -0.1 -0.0 -0.0 -0.1 -0.0 -0.1 -0.1 -0.1 -0.1 -0.1 -0.1 -0.2 -0.3 -0.2 -0.2 -0.1 -0.1 -0.1 -0.1 -0.1 -0.4 -0.5 -0.5 -0.5 -0.5 -0.6 -0.6 -0.6 -0.8 -0.6 -0.6 -0.6 -0.5 -0.5 -0.5 -0.3 -0.5 -0.5 -0.8 -1.2 -1.2 -0.9 -0.9 -0.7 -0.8 -0.7 -0.7 -0.6 -0.5 -0.5 -0.5 -0.7 -0.8 -0.8 -1.1 -0.9 -0.9
-0.0 -0.0 -0.0 -0.0 -0.0 -0.0 -0.0 -0.1 -0.1 -0.1 -0.1 -0.1 -0.1 -0.1 -0.1 -0.1 -0.0 -0.0 -0.0 -0.1 -0.2 -0.2 -0.2 -0.3 -0.2 -0.1 -0.1 -0.1 -0.1 -0.1 -0.1 -0.1 -0.4 -0.6 -0.6 -0.6 -0.6 -0.6 -0.6 -0.7 -0.7 -0.9 -0.9 -0.8 -0.6 -0.6 -0.5 -0.3 -0.6 -0.6 -0.6 -1.3 -1.4 -1.2 -1.2 -1.2 -0.9 -0.9 -0.9 -0.6 -0.5 -0.6 -0.6 -0.7 -0.8 -0.8 -0.5 -0.5 -0.4
-0.0 -0.0 -0.0 -0.0 -0.1 -0.1 -0.1 -0.1 -0.1 -0.1 -0.1 -0.1 -0.1 -0.1 -0.1 -0.1 -0.0 -0.1 -0.1 -0.1 -0.2 -0.2 -0.2 -0.3 -0.2 -0.1 -0.1 -0.0 -0.1 -0.1 -0.1 -0.1 -0.2 -0.6 -0.6 -0.8 -0.8 -0.7 -0.7 -0.9 -0.9 -1.0 -1.0 -0.9 -0.7 -0.7 -0.5 -0.5 -0.5 -0.5 -0.5 -0.9 -1.5 -1.4 -1.4 -1.4 -1.3 -1.0 -1.0 -0.8 -0.7 -0.6 -0.6 -0.7 -0.7 -0.7 -0.3 -0.1 0.1
-0.0 -0.0 -0.0 -0.0 -0.1 -0.1 -0.1 -0.1 -0.2 -0.2 -0.1 -0.1 -0.1 -0.1 -0.1 -0.1 -0.1 -0.1 -0.1 -0.1 -0.2 -0.3 -0.3 -0.2 -0.1 -0.1 -0.1 -0.1 -0.1 -0.1 -0.0 -0.1 -0.1 -0.7 -0.7 -1.0 -0.9 -0.9 -0.9 -1.0 -0.9 -1.1 -1.1 -1.0 -0.9 -0.9 -0.7 -0.5 -0.3 -0.3 -0.4 -0.8 -1.4 -1.4 -1.4 -1.2 -1.3 -1.2 -1.2 -1.0 -0.9 -0.7 -0.7 -0.6 -0.6 -0.6 -0.2 0.2 -0.4
-0.0 -0.0 -0.0 -0.1 -0.1 -0.1 -0.1 -0.1 -0.1 -0.1 -0.1 -0.1 -0.1 -0.1 -0.1 -0.0 -0.1 -0.2 -0.2 -0.2 -0.2 -0.2 -0.2 -0.2 -0.1 -0.0 -0.0 -0.0 -0.0 -0.0 -0.0 -0.1 -0.1 -0.8 -0.8 -1.0 -1.0 -0.9 -0.9 -0.9 -1.0 -1.1 -1.1 -1.3 -1.2 -1.2 -0.6 -0.4 -0.3 -0.3 -0.4 -0.7 -1.3 -1.3 -1.3 -1.1 -1.1 -1.0 -1.0 -1.1 -1.0 -0.7 -0.7 -0.6 -0.4 -0.4 0.2 0.3 -0.7
-0.1 -0.1 -0.1 -0.1 -0.1 -0.1 -0.1 -0.1 -0.1 -0.1 -0.1 -0.1 -0.1 -0.1 -0.1 -0.0 -0.0 -0.2 -0.2 -0.2 -0.2 -0.2 -0.2 -0.1 -0.0 -0.0 -0.0 -0.0 -0.0 -0.0 -0.0 -0.1 -0.1 -0.4 -0.4 -1.1 -1.1 -1.0 -1.0 -1.1 -1.2 -1.5 -1.5 -1.2 -0.8 -0.8 -0.5 -0.4 -0.3 -0.3 -0.4 -1.2 -1.5 -2.0 -2.0 -1.7 -1.4 -1.1 -1.1 -1.0 -0.9 -0.8 -0.8 -0.5 0.2 0.2 0.5 -0.1 -0.6
-0.1 -0.1 -0.1 -0.1 -0.1 -0.1 -0.1 -0.1 -0.1 -0.1 -0.1 -0.1 -0.0 -0.0 -0.0 -0.0 -0.0 -0.1 -0.1 -0.2 -0.1 -0.1 -0.1 -0.0 -0.0 -0.0 -0.0 -0.0 -0.0 -0.0 -0.1 -0.1 -0.3 -0.5 -0.5 -1.1 -1.4 -1.4 -1.4 -1.4 -1.5 -2.1 -2.1 -2.1 -1.2 -1.2 -1.1 -0.8 -0.5 -0.5 -0.6 -1.1 -0.9 -2.3 -2.3 -2.2 -2.0 -1.6 -1.6 -1.4 -1.2 -0.9 -0.9 0.0 0.3 0.3 -0.2 -0.2 -0.1
-0.1 -0.1 -0.1 -0.1 -0.1 -0.1 -0.1 -0.1 -0.1 -0.1 -0.1 -0.1 -0.0 -0.0 -0.0 -0.0 -0.0 -0.1 -0.1 -0.1 -0.1 -0.0 -0.0 -0.0 -0.0 -0.0 -0.0 -0.0 -0.0 -0.0 -0.1 -0.1 -0.2 -0.3 -0.3 -0.6 -1.3 -1.5 -1.5 -1.5 -1.7 -2.6 -2.6 -2.8 -1.7 -1.7 -1.4 -1.1 -0.8 -0.8 -0.6 -0.7 -0.8 -0.9 -0.9 -1.3 -1.2 -1.3 -1.3 -1.1 -0.8 -0.5 -0.5 0.9 0.5 0.5 0.2 0.1 -0.1
-0.1 -0.1 -0.1 -0.1 -0.1 -0.1 -0.1 -0.1 -0.1 -0.1 -0.0 -0.0 -0.0 -0.0 -0.0 -0.0 -0.0 -0.1 -0.1 -0.0 -0.0 -0.0 -0.0 -0.0 -0.0 -0.0 -0.0 -0.0 -0.0 -0.0 -0.1 -0.1 -0.2 -0.3 -0.3 -0.5 -1.4 -1.5 -1.5 -1.7 -2.0 -2.9 -2.9 -3.3 -2.1 -2.1 -1.7 -1.3 -1.0 -1.0 -0.9 -0.7 -0.8 -0.8 -0.8 -0.6 -0.8 -0.9 -0.9 -0.5 -0.2 0.2 0.2 1.2 0.7 0.7 0.4 0.1 -0.5
-0.1 -0.1 -0.1 -0.1 -0.1 -0.1 -0.1 -0.1 -0.1 -0.1 -0.0 -0.0 -0.0 -0.0 -0.0 -0.0 -0.0 -0.0 -0.0 -0.0 -0.0 -0.0 -0.0 -0.0 -0.0 -0.0 -0.0 -0.0 -0.1 -0.1 -0.1 -0.1 -0.1 -0.2 -0.2 -0.5 -0.9 -1.4 -1.4 -1.7 -2.2 -3.0 -3.0 -3.3 -2.5 -2.5 -2.0 -1.1 -0.9 -0.9 -0.9 -1.4 -1.6 -1.9 -1.9 -1.1 -1.4 -0.6 -0.6 0.4 0.5 1.1 1.1 0.8 0.3 0.3 0.3 0.1 -0.6
-0.1 -0.1 -0.1 -0.1 -0.1 -0.1 -0.1 -0.0 -0.0 -0.0 -0.0 -0.0 -0.0 -0.0 -0.0 -0.0 -0.0 -0.0 -0.0 -0.0 -0.0 -0.0 -0.0 -0.0 -0.0 -0.0 -0.0 -0.0 -0.1 -0.1 -0.1 -0.1 -0.1 -0.2 -0.2 -0.4 -0.9 -1.2 -1.2 -1.4 -2.0 -2.7 -2.7 -3.0 -2.8 -2.8 -1.8 -0.9 -0.7 -0.7 -0.7 -2.8 -3.6 -2.3 -2.3 -1.1 -0.9 0.8 0.8 0.8 1.0 1.3 1.3 0.5 0.4 0.4 0.4 0.5 -0.6
-0.1 -0.1 -0.1 -0.1 -0.1 -0.1 -0.1 -0.0 -0.0 -0.0 -0.0 -0.0 -0.0 -0.0 -0.0 -0.0 -0.0 -0.0 -0.0 -0.0 -0.0 -0.0 -0.0 -0.0 -0.0 -0.0 -0.0 -0.0 -0.1 -0.1 -0.1 -0.1 -0.1 -0.2 -0.2 -0.3 -0.7 -1.1 -1.1 -1.1 -1.6 -2.3 -2.3 -3.5 -4.4 -4.4 -2.8 -1.8 -1.0 -1.0 -3.7 -4.2 -1.5 -0.7 -0.7 -0.5 0.5 2.3 2.3 1.1 1.3 0.6 0.6 0.5 0.4 0.4 0.5 0.3 0.0
-0.1 -0.1 -0.1 -0.1 -0.0 -0.0 -0.0 -0.0 -0.0 -0.0 -0.0 -0.0 -0.0 -0.0 -0.0 -0.0 -0.0 -0.0 -0.0 -0.0 -0.0 -0.0 -0.0 0.0 -0.0 -0.0 -0.0 -0.0 -0.0 -0.0 -0.1 -0.1 -0.1 -0.2 -0.2 -0.3 -0.4 -1.0 -1.0 -1.0 -1.4 -2.0 -2.0 -4.0 -7.3 -7.3 -4.9 -3.5 -3.7 -3.7 -4.1 -1.9 -1.4 -1.3 -1.3 0.5 3.6 3.9 3.9 2.2 0.9 0.2 0.2 0.2 0.5 0.5 0.5 0.2 -0.1
-0.1 -0.1 -0.1 -0.1 -0.0 -0.0 -0.0 -0.0 -0.0 -0.0 -0.0 -0.0 -0.0 -0.0 -0.0 -0.0 -0.0 -0.0 -0.0 -0.0 -0.0 0.0 0.0 0.0 -0.0 -0.0 -0.0 -0.0 -0.0 -0.0 -0.1 -0.1 -0.1 -0.2 -0.2 -0.2 -0.4 -0.7 -0.7 -1.0 -1.3 -2.0 -2.0 -4.3 -8.3 -8.3 -6.3 -5.8 -8.4 -8.4 -6.5 -1.7 -2.1 -1.1 -1.1 2.4 3.5 1.8 1.8 1.1 0.5 -0.0 -0.0 -0.0 0.5 0.5 0.4 0.1 -0.1
-0.0 -0.1 -0.1 -0.0 -0.0 -0.0 -0.0 -0.0 -0.0 -0.0 -0.0 -0.0 -0.0 -0.0 -0.0 -0.0 -0.0 -0.0 -0.0 -0.0 0.0 0.0 0.0 0.0 -0.0 -0.0 -0.0 -0.0 -0.0 -0.0 -0.1 -0.1 -0.1 -0.2 -0.2 -0.2 -0.4 -0.6 -0.6 -1.1 -1.7 -2.7 -2.7 -4.2 -7.5 -7.5 -5.8 -6.1 -10.4 -10.4 -4.2 -0.9 -0.4 2.3 2.3 3.8 1.2 1.1 1.1 0.4 -0.3 -0.2 -0.2 -0.2 0.5 0.5 0.2 0.0 -0.1
-0.0 -0.0 -0.0 -0.0 -0.0 -0.0 -0.0 -0.0 -0.0 -0.0 -0.0 -0.0 -0.0 -0.0 -0.0 -0.0 -0.0 -0.0 -0.0 0.0 0.0 0.0 0.0 0.0 -0.0 -0.0 -0.0 0.0 -0.0 -0.0 -0.0 -0.1 -0.1 -0.1 -0.1 -0.2 -0.4 -0.7 -0.7 -1.2 -1.6 -3.5 -3.5 -4.3 -7.1 -7.1 -5.3 -6.3 -9.3 -9.3 -2.5 -1.1 2.5 5.1 5.1 1.1 0.6 0.5 0.5 0.1 -0.3 -0.1 -0.1 0.1 0.3 0.3 0.1 -0.0 -0.1
-0.0 -0.0 -0.0 -0.0 -0.0 -0.0 -0.0 -0.0 -0.0 -0.0 -0.0 -0.0 -0.0 -0.0 -0.0 0.0 -0.0 0.0 0.0 0.0 0.0 0.0 0.0 -0.0 -0.0 0.0 0.0 0.0 -0.0 -0.0 -0.0 -0.1 -0.1 -0.1 -0.1 -0.2 -0.3 -0.6 -0.6 -1.3 -2.3 -4.1 -4.1 -4.5 -6.9 -6.9 -5.4 -5.1 -6.2 -6.2 -2.1 -1.1 0.9 3.1 3.1 0.5 0.5 0.3 0.3 -0.2 -0.4 0.1 0.1 0.4 -0.7 -0.7 0.0 0.0 -0.1
-0.0 -0.0 -0.0 -0.0 -0.0 -0.0 -0.0 -0.0 0.0 0.0 -0.0 -0.0 -0.0 0.0 0.0 0.0 0.0 0.0 0.0 0.0 0.0 -0.0 -0.0 -0.0 0.0 0.0 0.0 -0.0 -0.0 -0.0 -0.0 -0.0 -0.1 -0.1 -0.1 -0.2 -0.3 -0.5 -0.5 -1.1 -2.7 -6.2 -6.2 -4.7 -6.8 -6.8 -5.6 -2.8 -2.7 -2.7 -1.5 -1.0 1.5 5.3 5.3 0.5 0.3 0.0 0.0 -0.4 -0.4 0.4 0.4 0.2 -0.7 -0.7 0.0 0.0 -0.0
-0.0 -0.0 -0.0 -0.0 -0.0 -0.0 -0.0 -0.0 -0.0 -0.0 0.0 0.0 0.0 0.0 0.0 0.0 -0.0 0.0 0.0 0.0 0.0 -0.0 -0.0 0.0 0.0 -0.0 -0.0 -0.0 -0.0 -0.0 -0.0 -0.0 -0.0 -0.1 -0.1 -0.1 -0.3 -0.4 -0.4 -0.8 -2.5 -8.0 -8.0 -6.2 -6.6 -6.6 -5.7 -1.2 -0.7 -0.7 -0.7 -0.6 1.8 2.7 2.7 0.5 0.1 -0.2 -0.2 -0.5 -0.0 0.2 0.2 -0.1 -0.5 -0.5 0.0 0.0 0.0
-0.0 -0.0 -0.0 -0.0 -0.0 -0.0 -0.0 -0.0 -0.0 -0.0 0.0 0.0 0.0 0.0 0.0 -0.0 0.0 -0.0 -0.0 0.0 0.0 -0.0 -0.0 0.0 -0.0 -0.0 -0.0 -0.0 -0.0 -0.0 -0.0 -0.0 -0.0 -0.0 -0.0 -0.1 -0.2 -0.3 -0.3 -0.6 -1.8 -9.4 -9.4 -8.2 -5.4 -5.4 -5.0 -0.2 -0.0 -0.0 -0.1 -0.3 2.2 0.5 0.5 -0.1 -0.0 -0.3 -0.3 -0.2 0.0 -0.2 -0.2 -0.3 -0.4 -0.4 -0.0 0.0 0.0
-0.0 -0.0 -0.0 -0.0 -0.0 -0.0 -0.0 -0.0 -0.0 -0.0 -0.0 0.0 -0.0 -0.0 -0.0 0.0 0.0 0.0 0.0 0.0 -0.0 -0.0 -0.0 -0.0 -0.0 -0.0 -0.0 -0.0 -0.0 -0.0 -0.0 -0.0 -0.0 -0.0 -0.0 -0.1 -0.2 -0.2 -0.2 -0.4 -1.1 -9.6 -9.6 -10.4 -7.1 -7.1 -7.3 -0.1 0.0 0.0 -0.0 0.2 1.8 -0.2 -0.2 -0.5 -0.3 -0.3 -0.3 -0.2 -0.2 -0.4 -0.4 -0.5 -0.7 -0.7 -0.2 -0.1 -0.1
-0.0 -0.0 -0.0 -0.0 -0.0 -0.0 -0.0 -0.0 -0.0 -0.0 -0.0 -0.0 -0.0 0.0 0.0 0.0 0.0 0.0 0.0 0.0 0.0 -0.0 -0.0 -0.0 -0.0 -0.0 -0.0 -0.0 -0.0 -0.0 -0.0 -0.0 -0.0 -0.0 -0.0 -0.0 -0.1 -0.2 -0.2 -0.3 -0.6 -8.1 -8.1 -12.0 -7.8 -7.8 -8.7 -0.0 0.0 0.0 0.0 0.8 0.9 -0.0 -0.0 -0.4 -0.4 -0.3 -0.3 -0.1 -0.1 -0.3 -0.3 -0.4 -1.4 -1.4 -0.7 -0.3 -0.3
-0.0 -0.0 -0.0 -0.0 -0.0 -0.0 -0.0 -0.0 -0.0 -0.0 -0.0 0.0 0.0 0.0 0.0 0.0 0.0 -0.0 -0.0 0.0 0.0 0.0 0.0 -0.0 -0.0 -0.0 -0.0 -0.0 -0.0 -0.0 -0.0 -0.0 0.0 0.0 0.0 -0.0 -0.0 -0.1 -0.1 -0.1 -0.4 -5.4 -5.4 -11.2 -7.9 -7.9 -9.5 -3.4 0.0 0.0 0.4 1.4 0.3 0.2 0.2 -0.2 -0.4 -0.3 -0.3 -0.1 -0.2 -0.1 -0.1 -0.2 -1.1 -1.1 -1.6 -0.9 -0.6
-0.0 -0.0 -0.0 -0.0 -0.0 -0.0 -0.0 -0.0 -0.0 -0.0 -0.0 -0.0 -0.0 0.0 0.0 0.0 0.0 -0.0 -0.0 0.0 0.0 0.0 0.0 0.0 0.0 0.0 0.0 -0.0 -0.0 -0.0 -0.0 -0.0 0.0 0.0 0.0 0.0 -0.0 -0.0 -0.0 -0.0 -0.1 -2.8 -2.8 -8.9 -7.6 -7.6 -10.1 -4.0 -0.1 -0.1 1.0 1.3 0.3 0.2 0.2 0.1 -0.2 -0.2 -0.2 -0.2 -0.1 -0.0 -0.0 0.1 0.1 0.1 -1.3 -1.4 -1.0
-0.0 -0.0 -0.0 -0.0 -0.0 -0.0 -0.0 -0.0 -0.0 -0.0 -0.0 -0.0 -0.0 -0.0 -0.0 0.0 0.0 -0.0 -0.0 0.0 0.0 0.0 0.0 0.0 0.0 -0.0 -0.0 -0.0 -0.0 -0.0 -0.0 0.0 0.0 0.0 0.0 0.0 0.0 0.0 0.0 0.0 -0.0 -0.1 -0.1 -5.9 -6.5 -6.5 -9.4 -4.4 -0.4 -0.4 0.1 0.6 0.4 0.3 0.3 0.2 0.1 -0.0 -0.0 -0.1 -0.0 0.1 0.1 0.2 0.3 0.3 0.2 -0.7 -1.2
-0.0 -0.0 -0.0 -0.0 -0.0 -0.0 -0.0 -0.0 -0.0 -0.0 -0.0 -0.0 -0.0 -0.0 -0.0 -0.0 0.0 0.0 0.0 0.0 0.0 0.0 0.0 0.0 0.0 -0.0 -0.0 -0.0 -0.0 -0.0 -0.0 0.0 0.0 0.0 0.0 0.0 0.0 0.0 0.0 0.0 0.0 0.0 0.0 -4.0 -5.3 -5.3 -8.3 -4.4 -1.0 -1.0 0.7 2.5 0.9 0.3 0.3 0.2 0.2 0.1 0.1 -0.0 -0.0 0.2 0.2 0.3 0.3 0.3 0.2 0.0 -0.1
-0.0 -0.0 -0.0 -0.0 -0.1 -0.1 -0.0 -0.0 -0.0 -0.0 -0.0 -0.0 -0.0 -0.0 -0.0 -0.0 0.0 0.0 0.0 0.0 -0.0 -0.0 -0.0 0.0 0.0 0.0 0.0 -0.0 0.0 0.0 0.0 0.0 0.0 0.1 0.1 0.0 0.0 0.1 0.1 0.0 0.0 0.0 0.0 -2.3 -3.6 -3.6 -6.8 -4.2 -1.4 -1.4 0.7 2.2 1.3 0.6 0.6 0.3 0.2 0.2 0.2 0.1 0.1 0.3 0.3 0.4 0.3 0.3 0.1 0.0 0.0
0.0 -0.0 -0.0 -0.0 -0.1 -0.1 -0.0 -0.0 -0.0 -0.0 -0.0 -0.0 -0.0 -0.0 -0.0 -0.0 0.0 0.0 0.0 0.0 -0.0 -0.0 -0.0 0.0 0.0 0.0 0.0 0.0 0.0 0.0 0.0 0.1 0.1 0.1 0.1 0.1 0.1 0.1 0.1 0.1 0.0 0.0 0.0 -0.3 -1.8 -1.8 -4.8 -4.2 -1.4 -1.4 -0.1 1.6 1.4 0.6 0.6 0.4 0.2 0.2 0.2 0.1 0.3 0.4 0.4 0.3 0.1 0.1 0.0 0.0 0.0
0.0 0.0 0.0 -0.0 -0.0 -0.0 -0.0 -0.0 -0.0 -0.0 -0.0 -0.1 -0.1 -0.1 -0.1 -0.0 0.0 0.0 0.0 0.0 -0.0 -0.0 -0.0 0.0 0.1 0.0 0.0 0.1 0.1 0.1 0.1 0.1 0.1 0.1 0.1 0.1 0.1 0.1 0.1 0.1 0.0 -0.0 -0.0 -0.1 -1.0 -1.0 -2.8 -2.5 -1.9 -1.9 -0.4 1.3 1.4 0.6 0.6 0.4 0.3 0.2 0.2 0.2 0.3 0.3 0.3 0.2 0.0 0.0 0.0 0.0 0.0
0.0 -0.0 -0.0 -0.0 -0.0 -0.0 -0.0 -0.0 -0.0 -0.0 -0.0 -0.1 -0.1 -0.1 -0.1 -0.0 0.0 0.0 0.0 0.0 0.0 0.0 0.0 0.0 0.1 0.1 0.1 0.1 0.1 0.1 0.2 0.1 0.1 0.1 0.1 0.1 0.1 0.1 0.1 0.1 0.0 -0.0 -0.0 -0.0 -0.7 -0.7 -1.8 -0.9 -2.5 -2.5 -0.6 1.5 1.2 0.5 0.5 0.3 0.2 0.1 0.1 0.1 0.3 0.3 0.3 0.1 0.0 0.0 0.0 0.0 0.0